Find Shi Jian 6/5A

NORAD ID: 49962 Int'l Des: 2021-122 Owner: CASC Country: CN operational
LEOCIRCULARRETROGRADESSO

Current View

Loading 3D Globe...

About Shi Jian 6/5A

Description loading...

Upcoming Passes

Passes for default location (London). Set your location on the main map for personalized predictions.

Altitude History

Loading altitude history...

Two-Line Element Set

1 49962U 21122B 26151.69898919 .00004342 00000-0 25779-3 0 9998
2 49962 97.3775 132.8864 0003204 92.6854 267.4743 15.11820548247253
Epoch: May 31, 2026 • Age: 5 hours

Current Status

Altitude 549.6 km
Velocity 7.58 km/s
Sub-Earth Point -44.82°S, 69.09°W
Launch Date Dec 10, 2021
Age 4.4 years
Type other

Technical Details

Classification Payload
Mass 350.00 kg
Dry Mass 350.00 kg
Total Mass 350.00 kg
Length 1.00 m
Diameter 1.00 m
Span 4.00 m
Shape Box + 2 Pan
Manufacturer SAST
Bus Type SJ6-5A
Phase Status In Orbit
Owner/State CASC/CN

Most Searched